| time (UTC) | temp F | wind direction | speed knots | gust knots | rain 1hr in | rain 24hr in | rain mn in | humidity % | barometer mb |
| 20260506183122 | 65 | 218 | 2.6 | 6.1 | 0.00 | 0.00 | 0.00 | 47 | 1012.1 |
| 20260506182622 | 64 | 218 | 1.7 | 5.2 | 0.00 | 0.00 | 0.00 | 44 | 1012.2 |
| 20260506182123 | 63 | 202 | 1.7 | 7.0 | 0.00 | 0.00 | 0.00 | 48 | 1012.2 |
| 20260506181622 | 62 | 241 | 1.7 | 4.3 | 0.00 | 0.00 | 0.00 | 47 | 1012.3 |
| 20260506181122 | 62 | 297 | 0.9 | 3.5 | 0.00 | 0.00 | 0.00 | 48 | 1012.2 |
| 20260506180622 | 61 | 291 | 0.9 | 3.5 | 0.00 | 0.00 | 0.00 | 48 | 1012.4 |
| 20260506180122 | 60 | 291 | 0.0 | 0.9 | 0.00 | 0.00 | 0.00 | 49 | 1012.5 |
| 20260506175622 | 60 | 291 | 0.0 | 0.0 | 0.00 | 0.00 | 0.00 | 47 | 1012.6 |
| 20260506175123 | 60 | 291 | 0.0 | 0.9 | 0.00 | 0.00 | 0.00 | 47 | 1012.6 |
| 20260506174622 | 60 | 291 | 0.0 | 1.7 | 0.00 | 0.00 | 0.00 | 45 | 1012.7 |
| 20260506174122 | 60 | 291 | 0.0 | 1.7 | 0.00 | 0.00 | 0.00 | 44 | 1012.8 |
| 20260506173622 | 60 | 323 | 0.9 | 2.6 | 0.00 | 0.00 | 0.00 | 48 | 1012.9 |
| 20260506173122 | 60 | 347 | 0.9 | 2.6 | 0.00 | 0.00 | 0.00 | 48 | 1013.1 |
| 20260506172622 | 60 | 345 | 0.9 | 3.5 | 0.00 | 0.00 | 0.00 | 45 | 1013.1 |
| 20260506172123 | 60 | 345 | 0.9 | 1.7 | 0.00 | 0.00 | 0.00 | 45 | 1013.2 |
| 20260506171622 | 60 | 345 | 0.9 | 2.6 | 0.00 | 0.00 | 0.00 | 49 | 1013.2 |
| 20260506171122 | 59 | 345 | 0.9 | 3.5 | 0.00 | 0.00 | 0.00 | 55 | 1013.3 |
| 20260506170622 | 59 | 345 | 0.9 | 3.5 | 0.00 | 0.00 | 0.00 | 49 | 1013.3 |
| 20260506170123 | 59 | 345 | 0.0 | 1.7 | 0.00 | 0.00 | 0.00 | 48 | 1013.4 |
| 20260506165622 | 58 | 345 | 0.9 | 2.6 | 0.00 | 0.00 | 0.00 | 47 | 1013.4 |
| 20260506165122 | 59 | 345 | 0.0 | 1.7 | 0.00 | 0.00 | 0.00 | 51 | 1013.6 |
| 20260506164622 | 58 | 344 | 0.9 | 2.6 | 0.00 | 0.00 | 0.00 | 52 | 1013.6 |
| 20260506164122 | 58 | 346 | 0.9 | 2.6 | 0.00 | 0.00 | 0.00 | 50 | 1013.7 |
| 20260506163622 | 57 | 349 | 1.7 | 3.5 | 0.00 | 0.00 | 0.00 | 51 | 1013.8 |
| 20260506163122 | 57 | 345 | 1.7 | 3.5 | 0.00 | 0.00 | 0.00 | 49 | 1013.8 |
| 20260506162622 | 56 | 337 | 0.9 | 3.5 | 0.00 | 0.00 | 0.00 | 51 | 1013.9 |
| 20260506162122 | 56 | 333 | 0.0 | 2.6 | 0.00 | 0.00 | 0.00 | 52 | 1013.8 |
| 20260506161622 | 55 | 333 | 0.9 | 1.7 | 0.00 | 0.00 | 0.00 | 56 | 1013.9 |
| 20260506161122 | 55 | 335 | 0.9 | 1.7 | 0.00 | 0.00 | 0.00 | 55 | 1013.9 |
| 20260506160622 | 55 | 337 | 0.0 | 1.7 | 0.00 | 0.00 | 0.00 | 57 | 1013.9 |
| 20260506160122 | 55 | 342 | 0.9 | 2.6 | 0.00 | 0.00 | 0.00 | 53 | 1014.0 |
| 20260506155622 | 55 | 12 | 0.9 | 2.6 | 0.00 | 0.00 | 0.00 | 54 | 1014.1 |
| 20260506155122 | 54 | 6 | 0.9 | 3.5 | 0.00 | 0.00 | 0.00 | 58 | 1014.2 |
| 20260506154622 | 54 | 241 | 0.0 | 1.7 | 0.00 | 0.00 | 0.00 | 60 | 1014.2 |
| 20260506154122 | 53 | 241 | 0.9 | 2.6 | 0.00 | 0.00 | 0.00 | 56 | 1014.3 |
| 20260506153623 | 53 | 241 | 0.9 | 1.7 | 0.00 | 0.00 | 0.00 | 59 | 1014.3 |
| 20260506153122 | 52 | 241 | 0.9 | 2.6 | 0.00 | 0.00 | 0.00 | 58 | 1014.3 |
| 20260506152622 | 52 | 240 | 0.0 | 2.6 | 0.00 | 0.00 | 0.00 | 59 | 1014.3 |
| 20260506152123 | 52 | 240 | 0.9 | 2.6 | 0.00 | 0.00 | 0.00 | 58 | 1014.4 |
| 20260506151622 | 51 | 239 | 0.0 | 1.7 | 0.00 | 0.00 | 0.00 | 59 | 1014.4 |
| 20260506151122 | 50 | 239 | 0.0 | 2.6 | 0.00 | 0.00 | 0.00 | 65 | 1014.6 |
| 20260506150622 | 49 | 239 | 0.0 | 1.7 | 0.00 | 0.00 | 0.00 | 64 | 1014.5 |
| 20260506150122 | 48 | 239 | 0.9 | 1.7 | 0.00 | 0.00 | 0.00 | 63 | 1014.5 |
| 20260506145622 | 47 | 239 | 0.0 | 1.7 | 0.00 | 0.00 | 0.00 | 66 | 1014.6 |
| 20260506145122 | 47 | 239 | 0.0 | 1.7 | 0.00 | 0.00 | 0.00 | 68 | 1014.7 |
| 20260506144622 | 46 | 239 | 0.0 | 1.7 | 0.00 | 0.00 | 0.00 | 68 | 1014.7 |
| 20260506144122 | 45 | 239 | 0.0 | 1.7 | 0.00 | 0.00 | 0.00 | 68 | 1014.7 |
| 20260506143622 | 45 | 238 | 0.0 | 1.7 | 0.00 | 0.00 | 0.00 | 71 | 1014.6 |
| 20260506143122 | 44 | 237 | 0.0 | 0.0 | 0.00 | 0.00 | 0.00 | 70 | 1014.6 |
| 20260506142622 | 44 | 237 | 0.0 | 0.0 | 0.00 | 0.00 | 0.00 | 69 | 1014.6 |
| 20260506142122 | 43 | 237 | 0.0 | 1.7 | 0.00 | 0.00 | 0.00 | 71 | 1014.6 |
| 20260506141622 | 42 | 237 | 0.0 | 0.0 | 0.00 | 0.00 | 0.00 | 75 | 1014.6 |
| 20260506141122 | 41 | 237 | 0.0 | 0.0 | 0.00 | 0.00 | 0.00 | 77 | 1014.6 |
| 20260506140622 | 41 | 237 | 0.0 | 0.0 | 0.00 | 0.00 | 0.00 | 78 | 1014.7 |
| 20260506140122 | 41 | 237 | 0.0 | 0.0 | 0.00 | 0.00 | 0.00 | 79 | 1014.6 |
| 20260506135622 | 40 | 237 | 0.0 | 0.0 | 0.00 | 0.00 | 0.00 | 79 | 1014.6 |
| 20260506135122 | 40 | 237 | 0.0 | 0.0 | 0.00 | 0.00 | 0.00 | 78 | 1014.6 |
| 20260506134622 | 40 | 237 | 0.0 | 0.0 | 0.00 | 0.00 | 0.00 | 79 | 1014.5 |
| 20260506134122 | 40 | 237 | 0.0 | 0.0 | 0.00 | 0.00 | 0.00 | 81 | 1014.5 |
| 20260506133623 | 40 | 237 | 0.0 | 0.0 | 0.00 | 0.00 | 0.00 | 82 | 1014.6 |
| 20260506133122 | 40 | 237 | 0.0 | 0.0 | 0.00 | 0.00 | 0.00 | 83 | 1014.5 |
| 20260506132622 | 40 | 237 | 0.0 | 0.0 | 0.00 | 0.00 | 0.00 | 83 | 1014.4 |
| 20260506132122 | 40 | 237 | 0.0 | 0.0 | 0.00 | 0.00 | 0.00 | 83 | 1014.3 |
| 20260506131622 | 40 | 237 | 0.0 | 0.0 | 0.00 | 0.00 | 0.00 | 82 | 1014.4 |
| 20260506131122 | 40 | 237 | 0.0 | 0.0 | 0.00 | 0.00 | 0.00 | 81 | 1014.4 |
| 20260506130623 | 39 | 237 | 0.0 | 0.0 | 0.00 | 0.00 | 0.00 | 82 | 1014.4 |
| 20260506130123 | 40 | 237 | 0.0 | 0.0 | 0.00 | 0.00 | 0.00 | 82 | 1014.4 |
| 20260506125622 | 40 | 237 | 0.0 | 0.0 | 0.00 | 0.00 | 0.00 | 81 | 1014.3 |
| 20260506125122 | 40 | 237 | 0.0 | 0.0 | 0.00 | 0.00 | 0.00 | 81 | 1014.2 |
| 20260506124622 | 40 | 237 | 0.0 | 0.0 | 0.00 | 0.00 | 0.00 | 80 | 1014.2 |
| 20260506124122 | 40 | 237 | 0.0 | 0.0 | 0.00 | 0.00 | 0.00 | 81 | 1014.2 |
| 20260506123622 | 40 | 237 | 0.0 | 0.0 | 0.00 | 0.00 | 0.00 | 80 | 1014.2 |
| 20260506123122 | 40 | 237 | 0.0 | 0.0 | 0.00 | 0.00 | 0.00 | 80 | 1014.1 |
| 20260506122622 | 40 | 237 | 0.0 | 0.0 | 0.00 | 0.00 | 0.00 | 80 | 1014.1 |
| 20260506122122 | 40 | 237 | 0.0 | 0.0 | 0.00 | 0.00 | 0.00 | 80 | 1014.0 |
| 20260506121623 | 40 | 237 | 0.0 | 0.0 | 0.00 | 0.00 | 0.00 | 80 | 1014.1 |
| 20260506121122 | 40 | 237 | 0.0 | 0.0 | 0.00 | 0.00 | 0.00 | 80 | 1014.1 |
| 20260506120622 | 40 | 237 | 0.0 | 0.0 | 0.00 | 0.00 | 0.00 | 79 | 1014.1 |
| 20260506120122 | 40 | 237 | 0.0 | 0.0 | 0.00 | 0.00 | 0.00 | 79 | 1014.1 |
| 20260506115622 | 41 | 237 | 0.0 | 0.0 | 0.00 | 0.00 | 0.00 | 79 | 1014.0 |
| 20260506115122 | 41 | 237 | 0.0 | 0.0 | 0.00 | 0.00 | 0.00 | 79 | 1014.0 |
| 20260506114622 | 41 | 237 | 0.0 | 0.0 | 0.00 | 0.00 | 0.00 | 80 | 1014.0 |
| 20260506114122 | 41 | 237 | 0.0 | 0.0 | 0.00 | 0.00 | 0.00 | 80 | 1014.0 |
| 20260506113622 | 41 | 237 | 0.0 | 0.0 | 0.00 | 0.00 | 0.00 | 80 | 1014.0 |
| 20260506113122 | 41 | 237 | 0.0 | 0.0 | 0.00 | 0.00 | 0.00 | 79 | 1014.0 |
| 20260506112622 | 41 | 237 | 0.0 | 0.0 | 0.00 | 0.00 | 0.00 | 79 | 1014.0 |
| 20260506112122 | 42 | 237 | 0.0 | 0.0 | 0.00 | 0.00 | 0.00 | 78 | 1014.0 |
| 20260506111622 | 42 | 237 | 0.0 | 0.0 | 0.00 | 0.00 | 0.00 | 77 | 1013.9 |
| 20260506111122 | 42 | 237 | 0.0 | 0.0 | 0.00 | 0.00 | 0.00 | 76 | 1013.9 |
| 20260506110622 | 42 | 237 | 0.0 | 0.0 | 0.00 | 0.00 | 0.00 | 76 | 1014.0 |
| 20260506110122 | 42 | 237 | 0.0 | 0.0 | 0.00 | 0.00 | 0.00 | 74 | 1014.0 |
| 20260506105622 | 42 | 237 | 0.0 | 0.0 | 0.00 | 0.00 | 0.00 | 77 | 1014.0 |
| 20260506105123 | 42 | 237 | 0.0 | 0.0 | 0.00 | 0.00 | 0.00 | 73 | 1013.9 |
| 20260506104622 | 42 | 237 | 0.0 | 0.0 | 0.00 | 0.00 | 0.00 | 75 | 1013.9 |
| 20260506104122 | 42 | 237 | 0.0 | 0.0 | 0.00 | 0.00 | 0.00 | 76 | 1013.9 |
| 20260506103623 | 41 | 237 | 0.0 | 0.0 | 0.00 | 0.00 | 0.00 | 77 | 1013.9 |
| 20260506103123 | 41 | 237 | 0.0 | 0.0 | 0.00 | 0.00 | 0.00 | 77 | 1013.9 |
| 20260506102623 | 41 | 237 | 0.0 | 0.0 | 0.00 | 0.00 | 0.00 | 78 | 1013.8 |
| 20260506102123 | 41 | 237 | 0.0 | 0.0 | 0.00 | 0.00 | 0.00 | 80 | 1013.7 |
| 20260506101623 | 41 | 237 | 0.0 | 0.0 | 0.00 | 0.00 | 0.00 | 81 | 1013.7 |
| 20260506101123 | 42 | 237 | 0.0 | 0.0 | 0.00 | 0.00 | 0.00 | 81 | 1013.7 |
| 20260506100623 | 42 | 237 | 0.0 | 0.0 | 0.00 | 0.00 | 0.00 | 80 | 1013.6 |
| 20260506100123 | 42 | 237 | 0.0 | 0.0 | 0.00 | 0.00 | 0.00 | 79 | 1013.5 |
| 20260506095624 | 42 | 237 | 0.0 | 0.0 | 0.00 | 0.00 | 0.00 | 79 | 1013.5 |
| 20260506095123 | 42 | 237 | 0.0 | 0.0 | 0.00 | 0.00 | 0.00 | 78 | 1013.4 |
| 20260506094623 | 43 | 237 | 0.0 | 0.0 | 0.00 | 0.00 | 0.00 | 78 | 1013.3 |
| 20260506094123 | 43 | 237 | 0.0 | 0.0 | 0.00 | 0.00 | 0.00 | 78 | 1013.4 |
| 20260506093623 | 43 | 237 | 0.0 | 0.0 | 0.00 | 0.00 | 0.00 | 77 | 1013.3 |
| 20260506093123 | 43 | 237 | 0.0 | 0.9 | 0.00 | 0.00 | 0.00 | 76 | 1013.4 |
| 20260506092622 | 43 | 237 | 0.0 | 0.9 | 0.00 | 0.00 | 0.00 | 76 | 1013.4 |
| 20260506092123 | 44 | 237 | 0.0 | 1.7 | 0.00 | 0.00 | 0.00 | 75 | 1013.5 |
| 20260506091623 | 44 | 237 | 0.0 | 0.0 | 0.00 | 0.00 | 0.00 | 74 | 1013.5 |
| 20260506091123 | 44 | 237 | 0.0 | 0.0 | 0.00 | 0.00 | 0.00 | 74 | 1013.4 |
| 20260506090623 | 45 | 237 | 0.0 | 0.0 | 0.00 | 0.00 | 0.00 | 73 | 1013.4 |
| 20260506090123 | 45 | 237 | 0.0 | 0.0 | 0.00 | 0.00 | 0.00 | 72 | 1013.4 |
| 20260506085623 | 45 | 237 | 0.0 | 0.0 | 0.00 | 0.00 | 0.00 | 71 | 1013.3 |
| 20260506085123 | 46 | 237 | 0.0 | 0.0 | 0.00 | 0.00 | 0.00 | 71 | 1013.3 |
| 20260506084623 | 46 | 237 | 0.0 | 0.0 | 0.00 | 0.00 | 0.00 | 69 | 1013.2 |
| 20260506084124 | 47 | 237 | 0.0 | 0.0 | 0.00 | 0.00 | 0.00 | 68 | 1013.2 |
| 20260506083624 | 47 | 237 | 0.0 | 0.0 | 0.00 | 0.00 | 0.00 | 67 | 1013.2 |
| 20260506083123 | 47 | 237 | 0.9 | 1.7 | 0.00 | 0.00 | 0.00 | 68 | 1013.2 |
| 20260506082623 | 48 | 237 | 1.7 | 2.6 | 0.00 | 0.00 | 0.00 | 65 | 1013.2 |
| 20260506082123 | 49 | 237 | 0.0 | 1.7 | 0.00 | 0.00 | 0.00 | 63 | 1013.2 |
| 20260506081623 | 49 | 237 | 0.0 | 0.0 | 0.00 | 0.00 | 0.00 | 57 | 1013.2 |
| 20260506081123 | 49 | 237 | 0.0 | 0.0 | 0.00 | 0.00 | 0.00 | 55 | 1013.1 |
| 20260506080624 | 49 | 237 | 0.0 | 0.0 | 0.00 | 0.00 | 0.00 | 55 | 1013.1 |
| 20260506080123 | 49 | 237 | 0.0 | 0.0 | 0.00 | 0.00 | 0.00 | 55 | 1013.1 |
| 20260506073123 | 50 | 237 | 0.0 | 0.0 | 0.00 | 0.00 | 0.00 | 56 | 1012.7 |
| 20260506072623 | 50 | 237 | 0.0 | 0.0 | 0.00 | 0.00 | 0.00 | 58 | 1012.7 |
| 20260506072123 | 50 | 237 | 0.0 | 0.0 | 0.00 | 0.00 | 0.00 | 61 | 1012.7 |
| 20260506071623 | 50 | 237 | 0.0 | 0.0 | 0.00 | 0.00 | 0.00 | 59 | 1012.6 |
| 20260506071123 | 51 | 237 | 0.0 | 0.0 | 0.00 | 0.00 | 0.00 | 58 | 1012.6 |
| 20260506070623 | 51 | 237 | 0.0 | 0.0 | 0.00 | 0.00 | 0.00 | 57 | 1012.5 |
| 20260506062123 | 51 | 237 | 0.0 | 0.0 | 0.00 | 0.00 | 0.00 | 59 | 1012.2 |
| 20260506061623 | 51 | 237 | 0.0 | 0.0 | 0.00 | 0.00 | 0.00 | 59 | 1012.2 |
| 20260506061123 | 51 | 237 | 0.0 | 0.0 | 0.00 | 0.00 | 0.00 | 57 | 1012.1 |
| 20260506060623 | 51 | 237 | 0.0 | 0.0 | 0.00 | 0.00 | 0.00 | 58 | 1012.0 |
| 20260506060123 | 52 | 237 | 0.0 | 0.0 | 0.00 | 0.00 | 0.00 | 60 | 1011.9 |
| 20260506051123 | 55 | 237 | 0.0 | 1.7 | 0.00 | 0.00 | 0.00 | 56 | 1011.3 |
| 20260506050623 | 55 | 237 | 0.0 | 0.0 | 0.00 | 0.00 | 0.00 | 53 | 1011.3 |
| 20260506050123 | 55 | 237 | 0.0 | 0.0 | 0.00 | 0.00 | 0.00 | 49 | 1011.2 |
| 20260506045123 | 55 | 237 | 0.0 | 0.9 | 0.00 | 0.00 | 0.00 | 51 | 1011.2 |
| 20260506044623 | 55 | 238 | 0.0 | 0.0 | 0.00 | 0.00 | 0.00 | 53 | 1011.2 |
| 20260506044123 | 55 | 238 | 0.0 | 1.7 | 0.00 | 0.00 | 0.00 | 54 | 1011.1 |
| 20260506043623 | 56 | 238 | 0.0 | 1.7 | 0.00 | 0.00 | 0.00 | 54 | 1011.0 |
| 20260506043123 | 56 | 238 | 0.9 | 2.6 | 0.00 | 0.00 | 0.00 | 55 | 1010.9 |
| 20260506042623 | 57 | 237 | 0.0 | 1.7 | 0.00 | 0.00 | 0.00 | 54 | 1010.8 |
| 20260506042122 | 57 | 237 | 0.0 | 1.7 | 0.00 | 0.00 | 0.00 | 50 | 1010.7 |
| 20260506041623 | 57 | 237 | 0.0 | 2.6 | 0.00 | 0.00 | 0.00 | 51 | 1010.7 |
| 20260506041123 | 58 | 237 | 0.0 | 0.0 | 0.00 | 0.00 | 0.00 | 50 | 1010.6 |
| 20260506040623 | 58 | 237 | 0.0 | 0.0 | 0.00 | 0.00 | 0.00 | 49 | 1010.5 |
| 20260506040123 | 58 | 237 | 0.0 | 0.0 | 0.00 | 0.00 | 0.00 | 50 | 1010.5 |
| 20260506035623 | 59 | 237 | 0.0 | 0.0 | 0.00 | 0.00 | 0.00 | 52 | 1010.4 |
| 20260506035123 | 59 | 237 | 0.0 | 0.0 | 0.00 | 0.00 | 0.00 | 52 | 1010.3 |
| 20260506034623 | 60 | 237 | 0.0 | 2.6 | 0.00 | 0.00 | 0.00 | 48 | 1010.2 |
| 20260506034124 | 60 | 238 | 0.9 | 2.6 | 0.00 | 0.00 | 0.00 | 46 | 1010.0 |
| 20260506033623 | 60 | 238 | 0.9 | 3.5 | 0.00 | 0.00 | 0.00 | 46 | 1010.0 |
| 20260506033123 | 61 | 240 | 0.9 | 2.6 | 0.00 | 0.00 | 0.00 | 45 | 1010.0 |
| 20260506032623 | 61 | 242 | 0.0 | 0.0 | 0.00 | 0.00 | 0.00 | 45 | 1009.8 |
| 20260506032123 | 62 | 242 | 0.0 | 0.0 | 0.00 | 0.00 | 0.00 | 48 | 1009.7 |
| 20260506031623 | 64 | 242 | 0.0 | 0.0 | 0.00 | 0.00 | 0.00 | 46 | 1009.7 |
| 20260506031123 | 65 | 242 | 0.0 | 0.0 | 0.00 | 0.00 | 0.00 | 43 | 1009.7 |
| 20260506030623 | 66 | 242 | 0.0 | 0.0 | 0.00 | 0.00 | 0.00 | 42 | 1009.6 |
| 20260506030123 | 67 | 242 | 0.0 | 0.0 | 0.00 | 0.00 | 0.00 | 34 | 1009.5 |
| 20260506025623 | 68 | 242 | 0.0 | 0.0 | 0.00 | 0.00 | 0.00 | 34 | 1009.5 |
| 20260506025123 | 68 | 242 | 0.0 | 0.0 | 0.00 | 0.00 | 0.00 | 33 | 1009.5 |
| 20260506024623 | 69 | 242 | 0.0 | 0.0 | 0.00 | 0.00 | 0.00 | 33 | 1009.5 |
| 20260506024123 | 69 | 242 | 0.0 | 0.0 | 0.00 | 0.00 | 0.00 | 32 | 1009.4 |
| 20260506023623 | 70 | 242 | 0.0 | 0.0 | 0.00 | 0.00 | 0.00 | 33 | 1009.4 |
| 20260506023123 | 70 | 242 | 0.0 | 0.0 | 0.00 | 0.00 | 0.00 | 34 | 1009.3 |
| 20260506022623 | 70 | 242 | 0.0 | 0.0 | 0.00 | 0.00 | 0.00 | 35 | 1009.3 |
| 20260506022123 | 70 | 242 | 0.0 | 0.0 | 0.00 | 0.00 | 0.00 | 34 | 1009.3 |
| 20260506021623 | 70 | 242 | 0.0 | 0.0 | 0.00 | 0.00 | 0.00 | 32 | 1009.3 |
| 20260506021123 | 71 | 242 | 0.0 | 0.0 | 0.00 | 0.00 | 0.00 | 32 | 1009.2 |
| 20260506020623 | 72 | 242 | 0.0 | 0.0 | 0.00 | 0.00 | 0.00 | 30 | 1009.2 |
| 20260506020123 | 72 | 242 | 0.0 | 0.0 | 0.00 | 0.00 | 0.00 | 30 | 1009.2 |
| 20260506015624 | 72 | 242 | 0.0 | 0.0 | 0.00 | 0.00 | 0.00 | 31 | 1009.3 |
| 20260506015123 | 73 | 242 | 0.0 | 0.0 | 0.00 | 0.00 | 0.00 | 30 | 1009.3 |
| 20260506014623 | 73 | 242 | 0.0 | 0.0 | 0.00 | 0.00 | 0.00 | 30 | 1009.2 |
| 20260506014123 | 74 | 242 | 0.9 | 2.6 | 0.00 | 0.00 | 0.00 | 29 | 1009.3 |
| 20260506013623 | 74 | 242 | 0.9 | 2.6 | 0.00 | 0.00 | 0.00 | 28 | 1009.2 |
| 20260506013123 | 74 | 242 | 0.0 | 1.7 | 0.00 | 0.00 | 0.00 | 28 | 1009.3 |
| 20260506012623 | 74 | 242 | 0.0 | 1.7 | 0.00 | 0.00 | 0.00 | 26 | 1009.3 |
| 20260506012123 | 74 | 242 | 0.0 | 1.7 | 0.00 | 0.00 | 0.00 | 25 | 1009.3 |
| 20260506011624 | 74 | 242 | 0.0 | 0.9 | 0.00 | 0.00 | 0.00 | 25 | 1009.3 |
| 20260506011123 | 74 | 242 | 0.9 | 2.6 | 0.00 | 0.00 | 0.00 | 26 | 1009.3 |
| 20260506010623 | 74 | 251 | 0.0 | 1.7 | 0.00 | 0.00 | 0.00 | 31 | 1009.4 |
| 20260506010124 | 75 | 256 | 0.0 | 2.6 | 0.00 | 0.00 | 0.00 | 28 | 1009.3 |
| 20260506005623 | 75 | 249 | 1.7 | 3.5 | 0.00 | 0.00 | 0.00 | 25 | 1009.5 |
| 20260506005122 | 75 | 247 | 0.0 | 0.9 | 0.00 | 0.00 | 0.00 | 28 | 1009.3 |
| 20260506004623 | 75 | 247 | 0.9 | 1.7 | 0.00 | 0.00 | 0.00 | 29 | 1009.5 |
| 20260506004123 | 75 | 243 | 1.7 | 3.5 | 0.00 | 0.00 | 0.00 | 26 | 1009.5 |
| 20260506003623 | 75 | 241 | 0.0 | 2.6 | 0.00 | 0.00 | 0.00 | 32 | 1009.5 |
| 20260506003123 | 74 | 241 | 0.0 | 2.6 | 0.00 | 0.00 | 0.00 | 31 | 1009.6 |
| 20260506002623 | 75 | 241 | 0.9 | 2.6 | 0.00 | 0.00 | 0.00 | 28 | 1009.7 |
| 20260506002123 | 75 | 240 | 0.9 | 3.5 | 0.00 | 0.00 | 0.00 | 27 | 1009.7 |
| 20260506001623 | 75 | 238 | 1.7 | 3.5 | 0.00 | 0.00 | 0.00 | 30 | 1009.8 |
| 20260506001125 | 74 | 236 | 0.9 | 3.5 | 0.00 | 0.00 | 0.00 | 28 | 1009.9 |
| 20260506000623 | 74 | 234 | 0.9 | 3.5 | 0.00 | 0.00 | 0.00 | 25 | 1010.0 |
| 20260506000123 | 74 | 240 | 0.9 | 2.6 | 0.00 | 0.00 | 0.00 | 29 | 1009.9 |
| 20260505235623 | 74 | 249 | 0.0 | 2.6 | 0.00 | 0.00 | 0.00 | 31 | 1010.1 |
| 20260505235123 | 74 | 258 | 1.7 | 4.3 | 0.00 | 0.00 | 0.00 | 28 | 1010.1 |
| 20260505234623 | 74 | 97 | 0.9 | 2.6 | 0.00 | 0.00 | 0.00 | 29 | 1010.2 |
| 20260505234123 | 74 | 178 | 0.9 | 2.6 | 0.00 | 0.00 | 0.00 | 31 | 1010.2 |
| 20260505233623 | 74 | 106 | 1.7 | 6.1 | 0.00 | 0.00 | 0.00 | 26 | 1010.3 |
| 20260505233123 | 74 | 271 | 1.7 | 5.2 | 0.00 | 0.00 | 0.00 | 29 | 1010.4 |
| 20260505232622 | 74 | 303 | 0.9 | 4.3 | 0.00 | 0.00 | 0.00 | 30 | 1010.7 |
| 20260505232122 | 74 | 286 | 0.9 | 4.3 | 0.00 | 0.00 | 0.00 | 29 | 1010.5 |
| 20260505231623 | 73 | 270 | 1.7 | 5.2 | 0.00 | 0.00 | 0.00 | 29 | 1010.6 |
| 20260505231122 | 73 | 46 | 0.9 | 1.7 | 0.00 | 0.00 | 0.00 | 31 | 1010.7 |
| 20260505230623 | 73 | 54 | 1.7 | 3.5 | 0.00 | 0.00 | 0.00 | 33 | 1010.8 |
| 20260505230122 | 73 | 45 | 1.7 | 7.0 | 0.00 | 0.00 | 0.00 | 32 | 1010.8 |
| 20260505225622 | 72 | 45 | 0.9 | 3.5 | 0.00 | 0.00 | 0.00 | 30 | 1010.9 |
| 20260505225123 | 72 | 38 | 1.7 | 3.5 | 0.00 | 0.00 | 0.00 | 27 | 1010.9 |
| 20260505224622 | 72 | 40 | 1.7 | 6.1 | 0.00 | 0.00 | 0.00 | 35 | 1010.9 |
| 20260505224122 | 72 | 2 | 0.9 | 4.3 | 0.00 | 0.00 | 0.00 | 29 | 1010.9 |
| 20260505223622 | 71 | 58 | 4.3 | 8.7 | 0.00 | 0.00 | 0.00 | 33 | 1011.0 |
| 20260505223122 | 72 | 56 | 3.5 | 9.6 | 0.00 | 0.00 | 0.00 | 34 | 1011.1 |
| 20260505222622 | 72 | 35 | 2.6 | 8.7 | 0.00 | 0.00 | 0.00 | 34 | 1011.1 |
| 20260505222123 | 72 | 45 | 2.6 | 6.1 | 0.00 | 0.00 | 0.00 | 33 | 1011.1 |
| 20260505221622 | 72 | 58 | 2.6 | 7.0 | 0.00 | 0.00 | 0.00 | 30 | 1011.2 |
| 20260505221123 | 72 | 39 | 1.7 | 5.2 | 0.00 | 0.00 | 0.00 | 30 | 1011.3 |
| 20260505220622 | 71 | 59 | 2.6 | 6.1 | 0.00 | 0.00 | 0.00 | 38 | 1011.3 |
| 20260505220122 | 71 | 49 | 2.6 | 7.0 | 0.00 | 0.00 | 0.00 | 32 | 1011.4 |
| 20260505215622 | 71 | 55 | 1.7 | 3.5 | 0.00 | 0.00 | 0.00 | 36 | 1011.4 |
| 20260505215122 | 70 | 65 | 2.6 | 7.0 | 0.00 | 0.00 | 0.00 | 28 | 1011.4 |
| 20260505214622 | 70 | 62 | 3.5 | 7.0 | 0.00 | 0.00 | 0.00 | 33 | 1011.6 |
| 20260505214122 | 70 | 52 | 1.7 | 6.1 | 0.00 | 0.00 | 0.00 | 34 | 1011.6 |
| 20260505213622 | 70 | 77 | 2.6 | 7.0 | 0.00 | 0.00 | 0.00 | 29 | 1011.6 |
| 20260505213122 | 70 | 65 | 2.6 | 7.8 | 0.00 | 0.00 | 0.00 | 29 | 1011.7 |
| 20260505212622 | 70 | 49 | 3.5 | 8.7 | 0.00 | 0.00 | 0.00 | 31 | 1011.8 |
| 20260505212122 | 70 | 48 | 1.7 | 6.1 | 0.00 | 0.00 | 0.00 | 29 | 1011.9 |
| 20260505211622 | 70 | 55 | 0.9 | 3.5 | 0.00 | 0.00 | 0.00 | 34 | 1012.0 |
| 20260505211123 | 70 | 43 | 2.6 | 6.1 | 0.00 | 0.00 | 0.00 | 31 | 1012.1 |
| 20260505210623 | 70 | 39 | 2.6 | 7.0 | 0.00 | 0.00 | 0.00 | 31 | 1012.3 |
| 20260505210122 | 70 | 56 | 2.6 | 7.0 | 0.00 | 0.00 | 0.00 | 32 | 1012.2 |
| 20260505205622 | 70 | 55 | 2.6 | 6.1 | 0.00 | 0.00 | 0.00 | 29 | 1012.2 |
| 20260505205122 | 70 | 37 | 2.6 | 7.8 | 0.00 | 0.00 | 0.00 | 37 | 1012.3 |